STARLINK-32917, 62921

Orbit data source: Space-Track

STARLINK-32917, 62921 is a payload satellite owned by SpaceX/Seattle (US) in LEO that was launched on Sat, 08 Feb 2025 UTC via an FALCON 9 launch vehicle from the Air Force Eastern Test Range (AFETR). Payload-class satellites include a variety of spacecraft equipped with specific instruments for various scientific and technological missions. These include communications satellites like Starlink; space stations such as the ISS; scientific satellites like the Hubble; Earth observation satellites from companies like Planet Labs, Umbra, and HawkEye 360; GPS; miniature CubeSats for education and research; and military/defense satellites.

Loading next visibility...
Identifier
62921, 2025-027Q
Orbit
LEO
Country
Flag of USUS
Related business
Manufacturer
SpaceX/Seattle
Mission
Operational Commercial Communications
Bus & Motor
STARLINK V2M, Unknown motor
Mass
730 kg wet, ~700 kg dry
Launch date (UTC)
2025-02-08 (9 months ago)
Launch vehicle
FALCON 9
Launch site
Air Force Eastern Test Range (AFETR)
Object type
Payload
Rocket body
Debris
Shape & HBR
Box + 2 Pan, 17.7 m
Radar Cross Section
33.884 m², Large (>1 m²)

Expand to show TLE details & history
Last TLE update: 8 hours ago

TLE from 8 hours ago
0 STARLINK-32917
1 62921U 25027Q   25312.73759072  .00044256  00000-0  16045-2 0  9998
2 62921  43.0009  91.9919 0001551 264.7701  95.2974 15.27654173 43043
Epoch: 2025-11-08T17:42Z
TLE epoch observation values (Epoch: 2025-11-08T17:42:07.838Z)
Latitude
0.00001°
Longitude
138.29635°
Altitude
482.701 km
Speed
7.626 km/s
True Right ascension
06h 07m 58s
True Declination
0° 00' 00"
Sunlit
Object was in full shadow at epoch
Visualization orbit readout
Latitude
Unknown
Longitude
Unknown
Altitude
Unknown
Speed
Unknown
Apparent Right ascension
Unknown
Apparent Declination
Unknown
Sunlit
N/A
Visualization observer readout
Local Sidereal Time
21:27:20
Azimuth
Unknown
Elevation
Unknown
Doppler factor
Unknown
Orbital elements
Apogee altitude
485.837 km
Perigee altitude
483.708 km
Semi-major axis
6,862.909 km
Eccentricity
0.00016
Inclination
43.0009°
RAAN
91.9919°
Arg. of periapsis
264.7701°
True anomaly
95.3151°
Mean anomaly
95.2974°
Eccentric anomaly
95.30625°
Mean motion
3.81752 °/min
Orbital period
94.3 mins
BSTAR
0.0016045
Loading maneuver chart data...
Computing Atmospheric mass density...
Loading historical data...
Loading historical data...
Loading historical data...
Loading historical data...
Loading historical data...
Loading historical data...
Loading historical data...

Documentation

Showing up to 5 results
|